| time (UTC) | temp F | wind direction | speed MPH | gust MPH | rain 1hr in | rain 24hr in | rain mn in | humidity % | barometer mb |
| 20260903153202 | 72 | 220 | 12.0 | 0.0 | 0.00 | 0.00 | 0.00 | 49 | 1019.0 |
| 20260903151807 | 72 | 230 | 12.0 | 0.0 | 0.00 | 0.00 | 0.00 | 46 | |
| 20260903150203 | 72 | 220 | 13.0 | 0.0 | 0.00 | 0.00 | 0.00 | 46 | 1019.0 |
| 20260903143202 | 72 | 220 | 13.0 | 0.0 | 0.00 | 0.00 | 0.00 | 46 | 1019.0 |
| 20260903141810 | 72 | 240 | 14.0 | 0.0 | 0.00 | 0.00 | 0.00 | 46 | |
| 20260903140203 | 72 | 230 | 15.0 | 0.0 | 0.00 | 0.00 | 0.00 | 46 | 1019.0 |
| 20260903133203 | 72 | 220 | 12.0 | 0.0 | 0.00 | 0.00 | 0.00 | 46 | 1019.0 |
| 20260903132024 | 72 | 250 | 16.0 | 0.0 | 0.00 | 0.00 | 0.00 | 40 | |
| 20260903130203 | 72 | 230 | 15.0 | 0.0 | 0.00 | 0.00 | 0.00 | 43 | 1019.0 |
| 20260903123202 | 73 | 220 | 16.0 | 0.0 | 0.00 | 0.00 | 0.00 | 43 | 1019.0 |
| 20260903121805 | 72 | 250 | 14.0 | 0.0 | 0.00 | 0.00 | 0.00 | 43 | |
| 20260903120203 | 72 | 230 | 16.0 | 0.0 | 0.00 | 0.00 | 0.00 | 43 | 1019.0 |
| 20260903113203 | 72 | 220 | 15.0 | 0.0 | 0.00 | 0.00 | 0.00 | 43 | 1020.0 |
| 20260903111801 | 72 | 250 | 12.0 | 0.0 | 0.00 | 0.00 | 0.00 | 40 | |
| 20260903110203 | 72 | 240 | 10.0 | 0.0 | 0.00 | 0.00 | 0.00 | 43 | 1020.0 |
| 20260903103408 | 72 | 240 | 14.0 | 0.0 | 0.00 | 0.00 | 0.00 | 43 | 1020.0 |
| 20260903102204 | 70 | 260 | 9.0 | 0.0 | 0.00 | 0.00 | 0.00 | 52 | |
| 20260903100203 | 70 | 230 | 12.0 | 0.0 | 0.00 | 0.00 | 0.00 | 52 | 1021.0 |
| 20260903093203 | 68 | 250 | 12.0 | 0.0 | 0.00 | 0.00 | 0.00 | 52 | 1021.0 |
| 20260903091803 | 68 | 270 | 9.0 | 0.0 | 0.00 | 0.00 | 0.00 | 49 | |
| 20260903090202 | 68 | 250 | 9.0 | 0.0 | 0.00 | 0.00 | 0.00 | 49 | 1020.0 |
| 20260903083203 | 68 | 230 | 10.0 | 0.0 | 0.00 | 0.00 | 0.00 | 52 | 1021.0 |
| 20260903081800 | 66 | 250 | 9.0 | 0.0 | 0.00 | 0.00 | 0.00 | 59 | |
| 20260903080202 | 66 | 230 | 8.0 | 0.0 | 0.00 | 0.00 | 0.00 | 59 | 1021.0 |
| 20260903073203 | 64 | 230 | 6.0 | 0.0 | 0.00 | 0.00 | 0.00 | 72 | 1021.0 |
| 20260903072011 | 63 | 250 | 7.0 | 0.0 | 0.00 | 0.00 | 0.00 | 72 | |
| 20260903070203 | 63 | 240 | 6.0 | 0.0 | 0.00 | 0.00 | 0.00 | 77 | 1021.0 |
| 20260903063202 | 61 | 220 | 5.0 | 0.0 | 0.00 | 0.00 | 0.00 | 77 | 1021.0 |
| 20260903061801 | 59 | 260 | 2.0 | 0.0 | 0.00 | 0.00 | 0.00 | 82 | |
| 20260903060203 | 59 | 250 | 3.0 | 0.0 | 0.00 | 0.00 | 0.00 | 82 | 1021.0 |
| 20260903053202 | 57 | 220 | 6.0 | 0.0 | 0.00 | 0.00 | 0.00 | 87 | 1021.0 |
| 20260903051802 | 55 | 230 | 7.0 | 0.0 | 0.00 | 0.00 | 0.00 | 93 | |
| 20260903050302 | 55 | 210 | 7.0 | 0.0 | 0.00 | 0.00 | 0.00 | 93 | 1020.0 |
| 20260903043203 | 55 | 210 | 8.0 | 0.0 | 0.00 | 0.00 | 0.00 | 93 | 1020.0 |
| 20260903042205 | 57 | 230 | 7.0 | 0.0 | 0.00 | 0.00 | 0.00 | 82 | |
| 20260903040203 | 57 | 210 | 8.0 | 0.0 | 0.00 | 0.00 | 0.00 | 87 | 1020.0 |
| 20260903033203 | 59 | 230 | 7.0 | 0.0 | 0.00 | 0.00 | 0.00 | 82 | 1020.0 |
| 20260903031802 | 59 | 250 | 5.0 | 0.0 | 0.00 | 0.00 | 0.00 | 82 | |
| 20260903030201 | 59 | 230 | 6.0 | 0.0 | 0.00 | 0.00 | 0.00 | 82 | 1020.0 |
| 20260903023203 | 57 | 210 | 6.0 | 0.0 | 0.00 | 0.00 | 0.00 | 87 | 1020.0 |
| 20260903021801 | 57 | 230 | 7.0 | 0.0 | 0.00 | 0.00 | 0.00 | 82 | |
| 20260903020203 | 57 | 210 | 7.0 | 0.0 | 0.00 | 0.00 | 0.00 | 87 | 1020.0 |
| 20260903013203 | 57 | 200 | 7.0 | 0.0 | 0.00 | 0.00 | 0.00 | 87 | 1020.0 |
| 20260903012002 | 57 | 240 | 7.0 | 0.0 | 0.00 | 0.00 | 0.00 | 82 | |
| 20260903010202 | 57 | 210 | 7.0 | 0.0 | 0.00 | 0.00 | 0.00 | 82 | 1020.0 |
| 20260903003203 | 57 | 210 | 5.0 | 0.0 | 0.00 | 0.00 | 0.00 | 82 | 1020.0 |
| 20260903001804 | 57 | 230 | 5.0 | 0.0 | 0.00 | 0.00 | 0.00 | 82 | |
| 20260903000204 | 57 | 220 | 6.0 | 0.0 | 0.00 | 0.00 | 0.00 | 82 | 1020.0 |
| 20260902233203 | 59 | 220 | 7.0 | 0.0 | 0.00 | 0.00 | 0.00 | 82 | 1020.0 |
| 20260902231802 | 59 | 240 | 7.0 | 0.0 | 0.00 | 0.00 | 0.00 | 77 | |
| 20260902230202 | 59 | 220 | 7.0 | 0.0 | 0.00 | 0.00 | 0.00 | 82 | 1020.0 |
| 20260902223202 | 59 | 210 | 6.0 | 0.0 | 0.00 | 0.00 | 0.00 | 82 | 1020.0 |
| 20260902222204 | 59 | 240 | 7.0 | 0.0 | 0.00 | 0.00 | 0.00 | 82 | |
| 20260902220203 | 59 | 220 | 6.0 | 0.0 | 0.00 | 0.00 | 0.00 | 82 | 1020.0 |
| 20260902213203 | 59 | 210 | 5.0 | 0.0 | 0.00 | 0.00 | 0.00 | 82 | 1020.0 |
| 20260902211804 | 61 | 220 | 7.0 | 0.0 | 0.00 | 0.00 | 0.00 | 77 | |
| 20260902210203 | 61 | 190 | 6.0 | 0.0 | 0.00 | 0.00 | 0.00 | 77 | 1020.0 |
| 20260902203202 | 63 | 170 | 3.0 | 0.0 | 0.00 | 0.00 | 0.00 | 77 | 1020.0 |
| 20260902201804 | 64 | 20 | 2.0 | 0.0 | 0.00 | 0.00 | 0.00 | 67 | |
| 20260902200202 | 63 | 360 | 3.0 | 0.0 | 0.00 | 0.00 | 0.00 | 72 | 1020.0 |
| 20260902193202 | 64 | 0 | 2.0 | 0.0 | 0.00 | 0.00 | 0.00 | 67 | 1020.0 |
| 20260902192018 | 66 | 320 | 2.0 | 0.0 | 0.00 | 0.00 | 0.00 | 59 | |
| 20260902190203 | 66 | 290 | 3.0 | 0.0 | 0.00 | 0.00 | 0.00 | 63 | 1020.0 |
| 20260902183203 | 68 | 230 | 7.0 | 0.0 | 0.00 | 0.00 | 0.00 | 56 | 1020.0 |
| 20260902181802 | 68 | 260 | 5.0 | 0.0 | 0.00 | 0.00 | 0.00 | 56 | |
| 20260902180203 | 68 | 240 | 7.0 | 0.0 | 0.00 | 0.00 | 0.00 | 56 | 1019.0 |
| 20260902173202 | 70 | 220 | 8.0 | 0.0 | 0.00 | 0.00 | 0.00 | 52 | 1019.0 |
| 20260902172010 | 72 | 220 | 7.0 | 0.0 | 0.00 | 0.00 | 0.00 | 46 | |
| 20260902170203 | 72 | 200 | 8.0 | 0.0 | 0.00 | 0.00 | 0.00 | 49 | 1019.0 |
| 20260902163202 | 72 | 220 | 8.0 | 0.0 | 0.00 | 0.00 | 0.00 | 46 | 1019.0 |
| 20260902162205 | 73 | 240 | 7.0 | 0.0 | 0.00 | 0.00 | 0.00 | 40 | |
| 20260902160203 | 73 | 210 | 6.0 | 0.0 | 0.00 | 0.00 | 0.00 | 40 | 1019.0 |